Time,TemperatureF,DewpointF,PressureIn,WindDirection,WindDirectionDegrees,WindSpeedMPH,WindSpeedGustMPH,Humidity,HourlyPrecipIn,Conditions,Clouds,dailyrainin,SoftwareType,DateUTC
2013-05-01 00:00:00,70.4,63.2,29.78,SE,136,6.0,7.0,78,0.00,,,0.00,Wunderground v.1.15,2013-05-01 05:00:00,
2013-05-01 00:10:00,70.2,63.0,29.78,ESE,119,8.0,8.0,78,0.00,,,0.00,Wunderground v.1.15,2013-05-01 05:10:00,
2013-05-01 00:20:00,70.0,63.2,29.78,SE,146,8.0,11.0,79,0.00,,,0.00,Wunderground v.1.15,2013-05-01 05:20:00,
2013-05-01 00:25:00,69.9,63.1,29.77,SSE,149,8.0,11.0,79,0.00,,,0.00,Wunderground v.1.15,2013-05-01 05:25:00,
2013-05-01 00:30:00,69.8,63.0,29.78,SE,140,8.0,8.0,79,0.00,,,0.00,Wunderground v.1.15,2013-05-01 05:30:00,
2013-05-01 00:35:00,69.7,63.3,29.78,SSE,157,7.0,8.0,80,0.00,,,0.00,Wunderground v.1.15,2013-05-01 05:35:00,
2013-05-01 00:40:00,69.6,63.2,29.78,SSE,148,8.0,8.0,80,0.00,,,0.00,Wunderground v.1.15,2013-05-01 05:40:00,
2013-05-01 00:50:00,69.3,62.9,29.78,SSE,147,7.0,9.0,80,0.00,,,0.00,Wunderground v.1.15,2013-05-01 05:50:00,
2013-05-01 00:55:00,69.2,63.1,29.79,SSE,148,7.0,9.0,81,0.00,,,0.00,Wunderground v.1.15,2013-05-01 05:55:00,
2013-05-01 01:00:00,69.1,63.0,29.79,SSE,148,7.0,7.0,81,0.00,,,0.00,Wunderground v.1.15,2013-05-01 06:00:00,
2013-05-01 01:10:00,68.9,62.8,29.79,SSE,152,6.0,7.0,81,0.00,,,0.00,Wunderground v.1.15,2013-05-01 06:10:00,
2013-05-01 01:15:00,68.8,63.1,29.80,SSE,153,5.0,7.0,82,0.00,,,0.00,Wunderground v.1.15,2013-05-01 06:15:00,
2013-05-01 01:20:00,68.6,62.9,29.80,SSE,157,5.0,5.0,82,0.00,,,0.00,Wunderground v.1.15,2013-05-01 06:20:00,
2013-05-01 01:25:00,68.5,62.8,29.80,SSE,154,4.0,5.0,82,0.00,,,0.00,Wunderground v.1.15,2013-05-01 06:25:00,
2013-05-01 01:35:00,68.2,62.8,29.79,SSE,151,5.0,6.0,83,0.00,,,0.00,Wunderground v.1.15,2013-05-01 06:35:00,
2013-05-01 01:40:00,68.0,62.6,29.79,SSE,149,5.0,8.0,83,0.00,,,0.00,Wunderground v.1.15,2013-05-01 06:40:00,
2013-05-01 01:45:00,67.8,62.4,29.78,SE,146,5.0,8.0,83,0.00,,,0.00,Wunderground v.1.15,2013-05-01 06:45:00,
2013-05-01 01:50:00,67.6,62.6,29.78,SE,142,6.0,6.0,84,0.00,,,0.00,Wunderground v.1.15,2013-05-01 06:50:00,
2013-05-01 02:00:00,67.4,62.4,29.77,SE,139,7.0,7.0,84,0.00,,,0.00,Wunderground v.1.15,2013-05-01 07:00:00,
2013-05-01 02:10:00,67.1,62.4,29.77,SE,139,6.0,6.0,85,0.00,,,0.00,Wunderground v.1.15,2013-05-01 07:10:00,
2013-05-01 02:15:00,67.0,62.7,29.77,SSE,147,7.0,7.0,86,0.00,,,0.00,Wunderground v.1.15,2013-05-01 07:15:00,
2013-05-01 02:20:00,66.9,62.6,29.77,SE,143,7.0,7.0,86,0.00,,,0.00,Wunderground v.1.15,2013-05-01 07:20:00,
2013-05-01 02:25:00,66.8,62.5,29.78,SE,146,6.0,7.0,86,0.00,,,0.00,Wunderground v.1.15,2013-05-01 07:25:00,
2013-05-01 02:30:00,66.7,62.4,29.78,SSE,148,5.0,5.0,86,0.00,,,0.00,Wunderground v.1.15,2013-05-01 07:30:00,
2013-05-01 02:35:00,66.6,62.6,29.78,SSE,155,5.0,6.0,87,0.00,,,0.00,Wunderground v.1.15,2013-05-01 07:35:00,
2013-05-01 02:45:00,66.4,62.4,29.77,SE,141,6.0,7.0,87,0.00,,,0.00,Wunderground v.1.15,2013-05-01 07:45:00,
2013-05-01 02:50:00,66.3,62.3,29.77,SSE,154,6.0,6.0,87,0.00,,,0.00,Wunderground v.1.15,2013-05-01 07:50:00,
2013-05-01 02:55:00,66.2,62.2,29.77,SSE,148,5.0,6.0,87,0.00,,,0.00,Wunderground v.1.15,2013-05-01 07:55:00,
2013-05-01 03:00:00,66.1,62.1,29.77,SE,142,5.0,6.0,87,0.00,,,0.00,Wunderground v.1.15,2013-05-01 08:00:00,
2013-05-01 03:10:00,65.9,62.2,29.76,SE,136,6.0,6.0,88,0.00,,,0.00,Wunderground v.1.15,2013-05-01 08:10:00,
2013-05-01 03:15:00,65.7,62.0,29.76,SE,134,5.0,6.0,88,0.00,,,0.00,Wunderground v.1.15,2013-05-01 08:15:00,
2013-05-01 03:20:00,65.6,61.9,29.76,SE,140,5.0,6.0,88,0.00,,,0.00,Wunderground v.1.15,2013-05-01 08:20:00,
2013-05-01 03:25:00,65.5,61.9,29.76,SE,140,5.0,6.0,88,0.00,,,0.00,Wunderground v.1.15,2013-05-01 08:25:00,
2013-05-01 03:35:00,65.3,62.0,29.76,SE,142,5.0,5.0,89,0.00,,,0.00,Wunderground v.1.15,2013-05-01 08:35:00,
2013-05-01 03:40:00,65.2,61.9,29.75,SE,128,5.0,5.0,89,0.00,,,0.00,Wunderground v.1.15,2013-05-01 08:40:00,
2013-05-01 03:45:00,65.0,61.7,29.75,SE,126,5.0,7.0,89,0.00,,,0.00,Wunderground v.1.15,2013-05-01 08:45:00,
2013-05-01 03:50:00,64.9,61.9,29.75,SE,130,6.0,6.0,90,0.00,,,0.00,Wunderground v.1.15,2013-05-01 08:50:00,
2013-05-01 04:00:00,64.8,61.8,29.75,SE,142,5.0,6.0,90,0.00,,,0.00,Wunderground v.1.15,2013-05-01 09:00:00,
2013-05-01 04:10:00,64.7,61.7,29.75,SE,134,5.0,5.0,90,0.00,,,0.00,Wunderground v.1.15,2013-05-01 09:10:00,
2013-05-01 04:15:00,64.5,61.5,29.75,SE,132,5.0,5.0,90,0.00,,,0.00,Wunderground v.1.15,2013-05-01 09:15:00,
2013-05-01 04:20:00,64.6,61.9,29.75,SE,136,5.0,5.0,91,0.00,,,0.00,Wunderground v.1.15,2013-05-01 09:20:00,
2013-05-01 04:25:00,64.6,61.9,29.74,SE,133,5.0,7.0,91,0.00,,,0.00,Wunderground v.1.15,2013-05-01 09:25:00,
2013-05-01 04:30:00,64.6,61.9,29.75,SE,134,5.0,5.0,91,0.00,,,0.00,Wunderground v.1.15,2013-05-01 09:30:00,
2013-05-01 04:40:00,64.7,62.0,29.74,SE,138,6.0,6.0,91,0.00,,,0.00,Wunderground v.1.15,2013-05-01 09:40:00,
2013-05-01 04:45:00,64.8,62.4,29.75,SE,136,6.0,6.0,92,0.00,,,0.00,Wunderground v.1.15,2013-05-01 09:45:00,
2013-05-01 04:50:00,64.9,62.5,29.75,SE,139,5.0,5.0,92,0.00,,,0.00,Wunderground v.1.15,2013-05-01 09:50:00,
2013-05-01 04:55:00,65.0,62.6,29.75,SE,141,5.0,5.0,92,0.00,,,0.00,Wunderground v.1.15,2013-05-01 09:55:00,
2013-05-01 05:00:00,65.1,62.7,29.76,SE,140,5.0,5.0,92,0.00,,,0.00,Wunderground v.1.15,2013-05-01 10:00:00,
2013-05-01 05:10:00,65.4,63.0,29.75,SE,139,5.0,5.0,92,0.00,,,0.00,Wunderground v.1.15,2013-05-01 10:10:00,
2013-05-01 05:15:00,65.5,63.1,29.75,SE,144,6.0,6.0,92,0.00,,,0.00,Wunderground v.1.15,2013-05-01 10:15:00,
2013-05-01 05:20:00,65.6,63.2,29.76,SE,142,6.0,6.0,92,0.00,,,0.00,Wunderground v.1.15,2013-05-01 10:20:00,
2013-05-01 05:30:00,65.8,63.4,29.76,SE,144,6.0,6.0,92,0.00,,,0.00,Wunderground v.1.15,2013-05-01 10:30:00,
2013-05-01 05:35:00,65.9,63.5,29.76,SE,143,7.0,7.0,92,0.00,,,0.00,Wunderground v.1.15,2013-05-01 10:35:00,
2013-05-01 05:40:00,66.0,63.6,29.76,SSE,148,6.0,7.0,92,0.00,,,0.00,Wunderground v.1.15,2013-05-01 10:40:00,
2013-05-01 05:50:00,66.1,63.4,29.76,SSE,153,6.0,6.0,91,0.00,,,0.00,Wunderground v.1.15,2013-05-01 10:50:00,
2013-05-01 05:55:00,66.2,63.5,29.76,SSE,166,5.0,6.0,91,0.00,,,0.00,Wunderground v.1.15,2013-05-01 10:55:00,
2013-05-01 06:00:00,66.2,63.5,29.76,SSE,159,5.0,5.0,91,0.00,,,0.00,Wunderground v.1.15,2013-05-01 11:00:00,
2013-05-01 06:10:00,66.4,64.0,29.77,South,169,5.0,8.0,92,0.00,,,0.00,Wunderground v.1.15,2013-05-01 11:10:00,
2013-05-01 06:15:00,66.5,64.1,29.77,South,169,6.0,8.0,92,0.00,,,0.00,Wunderground v.1.15,2013-05-01 11:15:00,
2013-05-01 06:20:00,66.6,64.2,29.77,South,171,8.0,8.0,92,0.00,,,0.00,Wunderground v.1.15,2013-05-01 11:20:00,
2013-05-01 06:25:00,66.6,64.2,29.77,SSE,156,7.0,8.0,92,0.00,,,0.00,Wunderground v.1.15,2013-05-01 11:25:00,
2013-05-01 06:30:00,66.5,64.1,29.77,SSE,160,7.0,7.0,92,0.00,,,0.00,Wunderground v.1.15,2013-05-01 11:30:00,
2013-05-01 06:40:00,66.4,64.0,29.78,South,169,7.0,7.0,92,0.00,,,0.00,Wunderground v.1.15,2013-05-01 11:40:00,
2013-05-01 06:45:00,66.3,63.9,29.78,SSE,163,7.0,7.0,92,0.00,,,0.00,Wunderground v.1.15,2013-05-01 11:45:00,
2013-05-01 06:50:00,66.4,64.0,29.79,SSE,164,6.0,6.0,92,0.00,,,0.00,Wunderground v.1.15,2013-05-01 11:50:00,
2013-05-01 07:00:00,66.5,64.1,29.79,SSE,157,6.0,7.0,92,0.00,,,0.00,Wunderground v.1.15,2013-05-01 12:00:00,
2013-05-01 07:10:00,66.5,64.1,29.80,SE,144,6.0,6.0,92,0.00,,,0.00,Wunderground v.1.15,2013-05-01 12:10:00,
2013-05-01 07:20:00,66.5,63.8,29.79,SE,145,6.0,9.0,91,0.00,,,0.00,Wunderground v.1.15,2013-05-01 12:20:00,
2013-05-01 07:25:00,66.5,63.8,29.80,SSE,147,6.0,9.0,91,0.00,,,0.00,Wunderground v.1.15,2013-05-01 12:25:00,
2013-05-01 07:30:00,66.5,63.8,29.80,SE,146,7.0,7.0,91,0.00,,,0.00,Wunderground v.1.15,2013-05-01 12:30:00,
2013-05-01 07:35:00,66.5,63.8,29.80,ESE,121,7.0,7.0,91,0.00,,,0.00,Wunderground v.1.15,2013-05-01 12:35:00,
2013-05-01 07:40:00,66.6,63.9,29.80,SSE,152,8.0,8.0,91,0.00,,,0.00,Wunderground v.1.15,2013-05-01 12:40:00,
2013-05-01 07:50:00,66.6,63.9,29.80,SE,138,7.0,7.0,91,0.00,,,0.00,Wunderground v.1.15,2013-05-01 12:50:00,
2013-05-01 07:55:00,66.6,63.9,29.80,SE,138,7.0,8.0,91,0.00,,,0.00,Wunderground v.1.15,2013-05-01 12:55:00,
2013-05-01 08:00:00,66.6,63.9,29.80,SE,135,8.0,8.0,91,0.00,,,0.00,Wunderground v.1.15,2013-05-01 13:00:00,
2013-05-01 08:10:00,66.7,64.3,29.80,ESE,122,7.0,11.0,92,0.00,,,0.00,Wunderground v.1.15,2013-05-01 13:10:00,
2013-05-01 08:15:00,66.7,64.0,29.80,SE,146,7.0,11.0,91,0.00,,,0.00,Wunderground v.1.15,2013-05-01 13:15:00,
2013-05-01 08:20:00,66.8,64.1,29.80,South,171,7.0,7.0,91,0.00,,,0.00,Wunderground v.1.15,2013-05-01 13:20:00,
2013-05-01 08:25:00,66.8,64.1,29.81,South,173,6.0,8.0,91,0.00,,,0.00,Wunderground v.1.15,2013-05-01 13:25:00,
2013-05-01 08:35:00,66.9,64.2,29.81,SSE,161,7.0,9.0,91,0.00,,,0.00,Wunderground v.1.15,2013-05-01 13:35:00,
2013-05-01 08:40:00,66.9,64.5,29.82,SSE,167,7.0,9.0,92,0.00,,,0.00,Wunderground v.1.15,2013-05-01 13:40:00,
2013-05-01 08:45:00,67.0,64.3,29.82,SE,144,8.0,9.0,91,0.00,,,0.00,Wunderground v.1.15,2013-05-01 13:45:00,
2013-05-01 08:50:00,67.0,64.3,29.82,SSE,162,7.0,7.0,91,0.00,,,0.00,Wunderground v.1.15,2013-05-01 13:50:00,
2013-05-01 08:55:00,67.1,64.4,29.82,SSE,147,7.0,8.0,91,0.00,,,0.00,Wunderground v.1.15,2013-05-01 13:55:00,
2013-05-01 09:00:00,67.2,64.2,29.82,SSE,167,7.0,7.0,90,0.00,,,0.00,Wunderground v.1.15,2013-05-01 14:00:00,
2013-05-01 09:10:00,67.6,64.6,29.82,SSE,159,6.0,6.0,90,0.00,,,0.00,Wunderground v.1.15,2013-05-01 14:10:00,
2013-05-01 09:15:00,67.8,64.8,29.82,SSE,157,6.0,6.0,90,0.00,,,0.00,Wunderground v.1.15,2013-05-01 14:15:00,
2013-05-01 09:20:00,68.1,64.7,29.82,SSE,147,6.0,9.0,89,0.00,,,0.00,Wunderground v.1.15,2013-05-01 14:20:00,
2013-05-01 09:25:00,68.4,65.0,29.82,SSE,155,6.0,9.0,89,0.00,,,0.00,Wunderground v.1.15,2013-05-01 14:25:00,
2013-05-01 09:30:00,68.8,65.1,29.82,SSE,156,6.0,6.0,88,0.00,,,0.00,Wunderground v.1.15,2013-05-01 14:30:00,
2013-05-01 09:35:00,69.1,65.4,29.82,SSE,157,6.0,9.0,88,0.00,,,0.00,Wunderground v.1.15,2013-05-01 14:35:00,
2013-05-01 09:45:00,70.5,66.4,29.82,SSE,167,6.0,7.0,87,0.00,,,0.00,Wunderground v.1.15,2013-05-01 14:45:00,
2013-05-01 09:50:00,71.3,66.2,29.82,SSE,156,5.0,6.0,84,0.00,,,0.00,Wunderground v.1.15,2013-05-01 14:50:00,
2013-05-01 09:55:00,71.7,66.6,29.82,SE,146,5.0,8.0,84,0.00,,,0.00,Wunderground v.1.15,2013-05-01 14:55:00,
2013-05-01 10:00:00,72.0,66.6,29.82,SE,126,7.0,9.0,83,0.00,,,0.00,Wunderground v.1.15,2013-05-01 15:00:00,
2013-05-01 10:10:00,72.3,66.5,29.83,SE,140,7.0,8.0,82,0.00,,,0.00,Wunderground v.1.15,2013-05-01 15:10:00,
2013-05-01 10:15:00,72.1,66.3,29.84,SSE,168,7.0,8.0,82,0.00,,,0.00,Wunderground v.1.15,2013-05-01 15:15:00,
2013-05-01 10:20:00,72.0,66.2,29.84,SSE,151,7.0,8.0,82,0.00,,,0.00,Wunderground v.1.15,2013-05-01 15:20:00,
2013-05-01 10:30:00,71.8,65.7,29.85,SSE,162,6.0,6.0,81,0.00,,,0.00,Wunderground v.1.15,2013-05-01 15:30:00,
2013-05-01 10:35:00,71.5,65.7,29.85,South,177,8.0,8.0,82,0.00,,,0.00,Wunderground v.1.15,2013-05-01 15:35:00,
2013-05-01 10:40:00,71.2,65.4,29.85,South,184,7.0,7.0,82,0.00,,,0.00,Wunderground v.1.15,2013-05-01 15:40:00,
2013-05-01 10:45:00,71.0,65.6,29.85,South,172,6.0,7.0,83,0.00,,,0.00,Wunderground v.1.15,2013-05-01 15:45:00,
2013-05-01 10:50:00,71.0,65.6,29.85,SSE,163,6.0,6.0,83,0.00,,,0.00,Wunderground v.1.15,2013-05-01 15:50:00,
2013-05-01 11:00:00,71.2,65.8,29.85,SSE,152,6.0,7.0,83,0.00,,,0.00,Wunderground v.1.15,2013-05-01 16:00:00,
2013-05-01 11:10:00,71.1,65.3,29.85,South,176,8.0,9.0,82,0.00,,,0.00,Wunderground v.1.15,2013-05-01 16:10:00,
2013-05-01 11:15:00,70.8,65.4,29.85,SSE,163,8.0,9.0,83,0.00,,,0.00,Wunderground v.1.15,2013-05-01 16:15:00,
2013-05-01 11:20:00,70.7,65.3,29.85,SSE,167,7.0,7.0,83,0.00,,,0.00,Wunderground v.1.15,2013-05-01 16:20:00,
2013-05-01 11:25:00,70.6,65.5,29.85,SE,146,7.0,7.0,84,0.00,,,0.00,Wunderground v.1.15,2013-05-01 16:25:00,
2013-05-01 11:30:00,70.6,65.5,29.85,SSE,151,6.0,8.0,84,0.00,,,0.00,Wunderground v.1.15,2013-05-01 16:30:00,
2013-05-01 11:40:00,70.6,65.5,29.86,ESE,122,7.0,7.0,84,0.00,,,0.00,Wunderground v.1.15,2013-05-01 16:40:00,
2013-05-01 11:45:00,70.5,65.4,29.86,SE,131,8.0,8.0,84,0.00,,,0.00,Wunderground v.1.15,2013-05-01 16:45:00,
2013-05-01 11:50:00,70.6,65.5,29.86,SE,146,7.0,8.0,84,0.00,,,0.00,Wunderground v.1.15,2013-05-01 16:50:00,
2013-05-01 11:55:00,70.7,65.6,29.86,SE,144,7.0,8.0,84,0.00,,,0.00,Wunderground v.1.15,2013-05-01 16:55:00,
2013-05-01 12:00:00,70.7,65.6,29.86,SE,142,8.0,8.0,84,0.00,,,0.00,Wunderground v.1.15,2013-05-01 17:00:00,
2013-05-01 12:10:00,70.9,65.5,29.86,SE,132,7.0,7.0,83,0.00,,,0.00,Wunderground v.1.15,2013-05-01 17:10:00,
2013-05-01 12:15:00,71.0,65.6,29.86,SE,138,6.0,7.0,83,0.00,,,0.00,Wunderground v.1.15,2013-05-01 17:15:00,
2013-05-01 12:25:00,71.0,65.2,29.87,SSE,157,7.0,7.0,82,0.00,,,0.00,Wunderground v.1.15,2013-05-01 17:25:00,
2013-05-01 12:30:00,71.0,65.6,29.87,SE,142,6.0,6.0,83,0.00,,,0.00,Wunderground v.1.15,2013-05-01 17:30:00,
2013-05-01 12:35:00,71.2,65.8,29.87,SE,135,6.0,6.0,83,0.00,,,0.00,Wunderground v.1.15,2013-05-01 17:35:00,
2013-05-01 12:40:00,71.4,66.0,29.87,SE,138,5.0,6.0,83,0.00,,,0.00,Wunderground v.1.15,2013-05-01 17:40:00,
2013-05-01 12:45:00,71.9,66.1,29.87,SE,138,5.0,7.0,82,0.00,,,0.00,Wunderground v.1.15,2013-05-01 17:45:00,
2013-05-01 12:55:00,72.3,65.8,29.88,SSE,157,4.0,5.0,80,0.00,,,0.00,Wunderground v.1.15,2013-05-01 17:55:00,
2013-05-01 13:00:00,72.3,65.8,29.88,SE,134,5.0,5.0,80,0.00,,,0.00,Wunderground v.1.15,2013-05-01 18:00:00,
2013-05-01 13:10:00,72.7,66.2,29.88,SE,126,6.0,6.0,80,0.00,,,0.00,Wunderground v.1.15,2013-05-01 18:10:00,
2013-05-01 13:15:00,73.2,65.9,29.88,SE,125,4.0,6.0,78,0.00,,,0.00,Wunderground v.1.15,2013-05-01 18:15:00,
2013-05-01 13:20:00,73.6,66.3,29.88,SE,137,4.0,5.0,78,0.00,,,0.00,Wunderground v.1.15,2013-05-01 18:20:00,
2013-05-01 13:25:00,73.7,66.4,29.88,SE,137,3.0,5.0,78,0.00,,,0.00,Wunderground v.1.15,2013-05-01 18:25:00,
2013-05-01 13:30:00,74.8,67.1,29.88,SE,137,1.0,5.0,77,0.00,,,0.00,Wunderground v.1.15,2013-05-01 18:30:00,
2013-05-01 13:40:00,76.5,67.6,29.87,East,90,4.0,6.0,74,0.00,,,0.00,Wunderground v.1.15,2013-05-01 18:40:00,
2013-05-01 13:45:00,77.2,67.5,29.87,ESE,109,5.0,6.0,72,0.00,,,0.00,Wunderground v.1.15,2013-05-01 18:45:00,
2013-05-01 13:50:00,77.3,68.8,29.86,ESE,115,6.0,6.0,75,0.00,,,0.00,Wunderground v.1.15,2013-05-01 18:50:00,
2013-05-01 13:55:00,77.7,68.0,29.86,ESE,111,6.0,6.0,72,0.00,,,0.00,Wunderground v.1.15,2013-05-01 18:55:00,
2013-05-01 14:00:00,78.1,68.3,29.86,East,100,5.0,6.0,72,0.00,,,0.00,Wunderground v.1.15,2013-05-01 19:00:00,
2013-05-01 14:10:00,79.1,67.6,29.86,ESE,111,5.0,6.0,68,0.00,,,0.00,Wunderground v.1.15,2013-05-01 19:10:00,
2013-05-01 14:20:00,79.2,68.1,29.85,SE,133,6.0,8.0,69,0.00,,,0.00,Wunderground v.1.15,2013-05-01 19:20:00,
2013-05-01 14:25:00,79.7,67.3,29.85,SE,143,6.0,12.0,66,0.00,,,0.00,Wunderground v.1.15,2013-05-01 19:25:00,
2013-05-01 14:30:00,79.3,67.8,29.85,SSE,152,7.0,8.0,68,0.00,,,0.00,Wunderground v.1.15,2013-05-01 19:30:00,
2013-05-01 14:35:00,79.7,67.8,29.85,ESE,122,8.0,8.0,67,0.00,,,0.00,Wunderground v.1.15,2013-05-01 19:35:00,
2013-05-01 14:40:00,80.4,68.4,29.85,ESE,110,7.0,7.0,67,0.00,,,0.00,Wunderground v.1.15,2013-05-01 19:40:00,
2013-05-01 14:50:00,79.7,67.8,29.85,ESE,122,5.0,6.0,67,0.00,,,0.00,Wunderground v.1.15,2013-05-01 19:50:00,
2013-05-01 14:55:00,79.6,66.8,29.85,SE,128,6.0,6.0,65,0.00,,,0.00,Wunderground v.1.15,2013-05-01 19:55:00,
2013-05-01 15:00:00,79.4,67.9,29.85,SSE,147,6.0,6.0,68,0.00,,,0.00,Wunderground v.1.15,2013-05-01 20:00:00,
2013-05-01 15:10:00,81.0,67.2,29.85,SSE,153,7.0,9.0,63,0.00,,,0.00,Wunderground v.1.15,2013-05-01 20:10:00,
2013-05-01 15:15:00,81.1,67.8,29.85,ESE,114,6.0,9.0,64,0.00,,,0.00,Wunderground v.1.15,2013-05-01 20:15:00,
2013-05-01 15:20:00,81.3,68.0,29.85,ESE,105,5.0,5.0,64,0.00,,,0.00,Wunderground v.1.15,2013-05-01 20:20:00,
2013-05-01 15:25:00,81.3,67.0,29.85,ESE,111,4.0,5.0,62,0.00,,,0.00,Wunderground v.1.15,2013-05-01 20:25:00,
2013-05-01 15:35:00,81.5,68.1,29.85,ESE,103,5.0,8.0,64,0.00,,,0.00,Wunderground v.1.15,2013-05-01 20:35:00,
2013-05-01 15:40:00,81.5,69.0,29.85,ESE,118,7.0,7.0,66,0.00,,,0.00,Wunderground v.1.15,2013-05-01 20:40:00,
2013-05-01 15:45:00,82.9,68.5,29.85,ESE,104,7.0,7.0,62,0.00,,,0.00,Wunderground v.1.15,2013-05-01 20:45:00,
2013-05-01 15:50:00,83.2,67.9,29.85,ENE,72,6.0,6.0,60,0.00,,,0.00,Wunderground v.1.15,2013-05-01 20:50:00,
2013-05-01 15:55:00,82.3,67.5,29.85,SE,140,6.0,6.0,61,0.00,,,0.00,Wunderground v.1.15,2013-05-01 20:55:00,
2013-05-01 16:00:00,82.5,68.6,29.85,ESE,115,6.0,6.0,63,0.00,,,0.00,Wunderground v.1.15,2013-05-01 21:00:00,
2013-05-01 16:10:00,82.7,67.9,29.84,SE,142,6.0,7.0,61,0.00,,,0.00,Wunderground v.1.15,2013-05-01 21:10:00,
2013-05-01 16:20:00,83.7,67.8,29.84,East,94,6.0,7.0,59,0.00,,,0.00,Wunderground v.1.15,2013-05-01 21:20:00,
2013-05-01 16:25:00,83.9,67.5,29.84,SSE,157,6.0,7.0,58,0.00,,,0.00,Wunderground v.1.15,2013-05-01 21:25:00,
2013-05-01 16:30:00,83.4,66.6,29.84,ESE,106,7.0,7.0,57,0.00,,,0.00,Wunderground v.1.15,2013-05-01 21:30:00,
2013-05-01 16:35:00,83.6,66.8,29.84,ESE,111,7.0,7.0,57,0.00,,,0.00,Wunderground v.1.15,2013-05-01 21:35:00,
2013-05-01 16:45:00,83.6,65.7,29.83,SE,126,7.0,7.0,55,0.00,,,0.00,Wunderground v.1.15,2013-05-01 21:45:00,
2013-05-01 16:50:00,83.4,66.1,29.83,ESE,117,7.0,8.0,56,0.00,,,0.00,Wunderground v.1.15,2013-05-01 21:50:00,
2013-05-01 16:55:00,83.2,65.4,29.83,SE,145,8.0,8.0,55,0.00,,,0.00,Wunderground v.1.15,2013-05-01 21:55:00,
2013-05-01 17:00:00,83.1,66.3,29.83,East,99,8.0,8.0,57,0.00,,,0.00,Wunderground v.1.15,2013-05-01 22:00:00,
2013-05-01 17:10:00,83.5,65.1,29.83,SE,134,7.0,7.0,54,0.00,,,0.00,Wunderground v.1.15,2013-05-01 22:10:00,
2013-05-01 17:15:00,83.7,65.3,29.83,SE,139,7.0,7.0,54,0.00,,,0.00,Wunderground v.1.15,2013-05-01 22:15:00,
2013-05-01 17:20:00,83.9,66.0,29.83,ESE,106,6.0,6.0,55,0.00,,,0.00,Wunderground v.1.15,2013-05-01 22:20:00,
2013-05-01 17:25:00,84.1,65.1,29.83,ESE,119,5.0,12.0,53,0.00,,,0.00,Wunderground v.1.15,2013-05-01 22:25:00,
2013-05-01 17:35:00,84.4,64.9,29.83,ESE,117,6.0,9.0,52,0.00,,,0.00,Wunderground v.1.15,2013-05-01 22:35:00,
2013-05-01 17:40:00,84.6,65.0,29.83,ESE,118,6.0,9.0,52,0.00,,,0.00,Wunderground v.1.15,2013-05-01 22:40:00,
2013-05-01 17:45:00,84.5,64.4,29.83,SE,136,7.0,9.0,51,0.00,,,0.00,Wunderground v.1.15,2013-05-01 22:45:00,
2013-05-01 17:50:00,84.1,64.6,29.83,SSE,148,8.0,8.0,52,0.00,,,0.00,Wunderground v.1.15,2013-05-01 22:50:00,
2013-05-01 18:00:00,83.4,64.5,29.83,East,99,7.0,8.0,53,0.00,,,0.00,Wunderground v.1.15,2013-05-01 23:00:00,
2013-05-01 18:10:00,83.5,65.1,29.83,SE,131,6.0,6.0,54,0.00,,,0.00,Wunderground v.1.15,2013-05-01 23:10:00,
2013-05-01 18:20:00,83.4,64.5,29.83,ESE,119,7.0,7.0,53,0.00,,,0.00,Wunderground v.1.15,2013-05-01 23:20:00,
2013-05-01 18:25:00,83.1,64.7,29.83,ESE,121,7.0,8.0,54,0.00,,,0.00,Wunderground v.1.15,2013-05-01 23:25:00,
2013-05-01 18:30:00,82.8,64.5,29.83,ESE,116,7.0,7.0,54,0.00,,,0.00,Wunderground v.1.15,2013-05-01 23:30:00,
2013-05-01 18:35:00,82.6,64.8,29.83,ESE,116,6.0,7.0,55,0.00,,,0.00,Wunderground v.1.15,2013-05-01 23:35:00,
2013-05-01 18:45:00,82.1,64.8,29.83,SSE,147,6.0,7.0,56,0.00,,,0.00,Wunderground v.1.15,2013-05-01 23:45:00,
2013-05-01 18:50:00,81.9,65.2,29.83,SE,142,6.0,6.0,57,0.00,,,0.00,Wunderground v.1.15,2013-05-01 23:50:00,
2013-05-01 18:55:00,81.7,65.0,29.84,SE,137,6.0,8.0,57,0.00,,,0.00,Wunderground v.1.15,2013-05-01 23:55:00,
2013-05-01 19:00:00,81.3,65.1,29.84,SE,132,6.0,7.0,58,0.00,,,0.00,Wunderground v.1.15,2013-05-02 00:00:00,
2013-05-01 19:10:00,80.7,65.0,29.85,SE,132,5.0,5.0,59,0.00,,,0.00,Wunderground v.1.15,2013-05-02 00:10:00,
2013-05-01 19:15:00,80.4,65.2,29.85,SE,128,4.0,5.0,60,0.00,,,0.00,Wunderground v.1.15,2013-05-02 00:15:00,
2013-05-01 19:20:00,80.1,65.0,29.85,ESE,116,5.0,6.0,60,0.00,,,0.00,Wunderground v.1.15,2013-05-02 00:20:00,
2013-05-01 19:30:00,79.3,65.1,29.86,ESE,121,5.0,5.0,62,0.00,,,0.00,Wunderground v.1.15,2013-05-02 00:30:00,
2013-05-01 19:35:00,78.9,64.8,29.86,ESE,121,3.0,5.0,62,0.00,,,0.00,Wunderground v.1.15,2013-05-02 00:35:00,
2013-05-01 19:40:00,78.6,64.9,29.87,ESE,121,2.0,2.0,63,0.00,,,0.00,Wunderground v.1.15,2013-05-02 00:40:00,
2013-05-01 19:45:00,78.3,64.7,29.87,ESE,121,2.0,2.0,63,0.00,,,0.00,Wunderground v.1.15,2013-05-02 00:45:00,
2013-05-01 19:50:00,78.0,64.8,29.87,ESE,121,0.0,0.0,64,0.00,,,0.00,Wunderground v.1.15,2013-05-02 00:50:00,
2013-05-01 20:00:00,77.5,64.8,29.87,ESE,121,0.0,0.0,65,0.00,,,0.00,Wunderground v.1.15,2013-05-02 01:00:00,
2013-05-01 20:10:00,76.9,64.7,29.87,ESE,121,0.0,0.0,66,0.00,,,0.00,Wunderground v.1.15,2013-05-02 01:10:00,
2013-05-01 20:15:00,76.5,64.7,29.87,ESE,121,0.0,0.0,67,0.00,,,0.00,Wunderground v.1.15,2013-05-02 01:15:00,
2013-05-01 20:20:00,76.2,64.9,29.88,ESE,121,0.0,0.0,68,0.00,,,0.00,Wunderground v.1.15,2013-05-02 01:20:00,
2013-05-01 20:25:00,75.9,64.6,29.88,ESE,121,0.0,0.0,68,0.00,,,0.00,Wunderground v.1.15,2013-05-02 01:25:00,
2013-05-01 20:30:00,75.5,64.6,29.89,ESE,121,0.0,0.0,69,0.00,,,0.00,Wunderground v.1.15,2013-05-02 01:30:00,
2013-05-01 20:40:00,75.0,64.5,29.89,ESE,121,0.0,0.0,70,0.00,,,0.00,Wunderground v.1.15,2013-05-02 01:40:00,
2013-05-01 20:45:00,74.7,64.7,29.89,ESE,121,0.0,0.0,71,0.00,,,0.00,Wunderground v.1.15,2013-05-02 01:45:00,
2013-05-01 20:50:00,74.4,64.8,29.89,ESE,121,0.0,0.0,72,0.00,,,0.00,Wunderground v.1.15,2013-05-02 01:50:00,
2013-05-01 20:55:00,74.2,65.0,29.89,ESE,121,0.0,0.0,73,0.00,,,0.00,Wunderground v.1.15,2013-05-02 01:55:00,
2013-05-01 21:00:00,74.0,64.8,29.89,East,89,1.0,4.0,73,0.00,,,0.00,Wunderground v.1.15,2013-05-02 02:00:00,
2013-05-01 21:10:00,74.2,65.0,29.90,East,88,1.0,1.0,73,0.00,,,0.00,Wunderground v.1.15,2013-05-02 02:10:00,
2013-05-01 21:15:00,74.3,65.1,29.91,ENE,69,1.0,4.0,73,0.00,,,0.00,Wunderground v.1.15,2013-05-02 02:15:00,
2013-05-01 21:25:00,74.9,64.9,29.91,ENE,69,3.0,10.0,71,0.00,,,0.00,Wunderground v.1.15,2013-05-02 02:25:00,
2013-05-01 21:30:00,75.1,64.6,29.91,ENE,76,5.0,6.0,70,0.00,,,0.00,Wunderground v.1.15,2013-05-02 02:30:00,
2013-05-01 21:35:00,75.3,64.4,29.91,ENE,78,6.0,13.0,69,0.00,,,0.00,Wunderground v.1.15,2013-05-02 02:35:00,
2013-05-01 21:40:00,75.4,64.1,29.92,East,80,7.0,10.0,68,0.00,,,0.00,Wunderground v.1.15,2013-05-02 02:40:00,
2013-05-01 21:45:00,75.3,63.6,29.92,East,80,6.0,10.0,67,0.00,,,0.00,Wunderground v.1.15,2013-05-02 02:45:00,
2013-05-01 21:55:00,75.1,63.4,29.92,ENE,74,5.0,5.0,67,0.00,,,0.00,Wunderground v.1.15,2013-05-02 02:55:00,
2013-05-01 22:00:00,74.9,63.6,29.92,ENE,74,3.0,3.0,68,0.00,,,0.00,Wunderground v.1.15,2013-05-02 03:00:00,
2013-05-01 22:10:00,74.4,63.1,29.92,ENE,74,2.0,2.0,68,0.00,,,0.00,Wunderground v.1.15,2013-05-02 03:10:00,
2013-05-01 22:15:00,74.2,63.4,29.92,ENE,74,2.0,2.0,69,0.00,,,0.00,Wunderground v.1.15,2013-05-02 03:15:00,
2013-05-01 22:20:00,73.9,63.5,29.92,ENE,74,1.0,1.0,70,0.00,,,0.00,Wunderground v.1.15,2013-05-02 03:20:00,
2013-05-01 22:25:00,73.5,63.1,29.92,ENE,74,1.0,3.0,70,0.00,,,0.00,Wunderground v.1.15,2013-05-02 03:25:00,
2013-05-01 22:30:00,73.2,63.2,29.92,East,79,3.0,3.0,71,0.00,,,0.00,Wunderground v.1.15,2013-05-02 03:30:00,
2013-05-01 22:40:00,73.0,63.0,29.91,East,85,5.0,10.0,71,0.00,,,0.00,Wunderground v.1.15,2013-05-02 03:40:00,
2013-05-01 22:45:00,72.9,63.3,29.90,East,93,6.0,10.0,72,0.00,,,0.00,Wunderground v.1.15,2013-05-02 03:45:00,
2013-05-01 22:50:00,72.8,63.2,29.90,East,87,5.0,6.0,72,0.00,,,0.00,Wunderground v.1.15,2013-05-02 03:50:00,
2013-05-01 22:55:00,72.7,63.1,29.90,East,90,6.0,6.0,72,0.00,,,0.00,Wunderground v.1.15,2013-05-02 03:55:00,
2013-05-01 23:00:00,72.5,63.0,29.90,East,94,6.0,7.0,72,0.00,,,0.00,Wunderground v.1.15,2013-05-02 04:00:00,
2013-05-01 23:05:00,72.4,62.9,29.90,ENE,75,6.0,7.0,72,0.00,,,0.00,Wunderground v.1.15,2013-05-02 04:05:00,
2013-05-01 23:10:00,72.2,62.7,29.90,ESE,103,7.0,7.0,72,0.00,,,0.00,Wunderground v.1.15,2013-05-02 04:10:00,
2013-05-01 23:15:00,72.1,62.6,29.90,East,91,7.0,9.0,72,0.00,,,0.00,Wunderground v.1.15,2013-05-02 04:15:00,
2013-05-01 23:20:00,72.0,62.5,29.90,East,83,7.0,7.0,72,0.00,,,0.00,Wunderground v.1.15,2013-05-02 04:20:00,
2013-05-01 23:25:00,71.8,62.7,29.90,East,99,8.0,8.0,73,0.00,,,0.00,Wunderground v.1.15,2013-05-02 04:25:00,
2013-05-01 23:30:00,71.7,62.6,29.90,East,89,7.0,8.0,73,0.00,,,0.00,Wunderground v.1.15,2013-05-02 04:30:00,
2013-05-01 23:35:00,71.5,62.4,29.90,East,83,7.0,12.0,73,0.00,,,0.00,Wunderground v.1.15,2013-05-02 04:35:00,
2013-05-01 23:40:00,71.3,62.6,29.89,East,92,7.0,9.0,74,0.00,,,0.00,Wunderground v.1.15,2013-05-02 04:40:00,
2013-05-01 23:50:00,71.0,62.7,29.89,ESE,103,9.0,11.0,75,0.00,,,0.00,Wunderground v.1.15,2013-05-02 04:50:00,
2013-05-01 23:55:00,70.8,62.5,29.89,East,83,9.0,11.0,75,0.00,,,0.00,Wunderground v.1.15,2013-05-02 04:55:00,